Weather History for Fosston, MN

Change the Weather History Date:

Saturday, November 19, 2011

  Actual Average Record
Temperature  
Mean Temperature 12 °F -  
Max Temperature 19 °F 31 °F 53 °F (1963)
Min Temperature 6 °F 17 °F -11 °F (1996)
Degree Days  
Heating Degree Days 52    
Moisture  
Dew Point 9 °F    
Average Humidity 84    
Maximum Humidity 93    
Minimum Humidity 73    
Precipitation  
Precipitation 0.00 in - - ()
Sea Level Pressure  
Sea Level Pressure 29.96 in    
Wind  
Wind Speed 13 mph (NNW)    
Max Wind Speed 21 mph    
Max Gust Speed 24 mph    
Visibility 10 miles    
Events Snow    
Averages and records for this station are not official NWS values.
T = Trace of Precipitation, MM = Missing Value Source: NWS Daily Summary

Daily Weather History Graph

Daily Weather History Graph

Search for Another Location

Airport:

Trip Planner

Search our weather history database for the weather conditions in past years. The results will help you decide how hot, cold, wet, or windy it might be!

Date:

Astronomy

Nov. 19, 2011 Rise Set
Actual Time 7:33 AM CST 4:42 PM CST
Civil Twilight 6:59 AM CST 5:16 PM CST
Nautical Twilight 6:22 AM CST 5:54 PM CST
Astronomical Twilight 5:45 AM CST 6:30 PM CST
Moon 12:29 AM CST (11/19) 1:24 PM CST (11/19)
Length of Visible Light 10h 16m
Length of Day
9h 08m
Last Quarter, 38% of the Moon is Illuminated
Nov 19
Last Quarter
Nov 25
New
Dec 2
First Quarter
Dec 10
Full
Dec 17
Last Quarter

Hourly Weather History & Observations

Time (CST) Temp. Windchill Dew Point Humidity Pressure Visibility Wind Dir Wind Speed Gust Speed Precip Events Conditions
12:15 AM 19.4 °F 7.2 °F 15.8 °F 86% 29.79 in 10.0 mi NW 11.5 mph - N/A   Overcast
12:35 AM 19.4 °F 8.6 °F 15.8 °F 86% 29.82 in 10.0 mi WNW 9.2 mph 17.3 mph N/A   Overcast
12:55 AM 19.4 °F 6.6 °F 15.8 °F 86% 29.81 in 10.0 mi NW 12.7 mph - N/A   Overcast
1:15 AM 19.4 °F 7.9 °F 15.8 °F 86% 29.80 in 10.0 mi NW 10.4 mph - N/A   Overcast
1:35 AM 19.4 °F 6.0 °F 15.8 °F 86% 29.81 in 10.0 mi WNW 13.8 mph 18.4 mph N/A   Overcast
1:55 AM 17.6 °F 2.7 °F 15.8 °F 93% 29.80 in 10.0 mi NW 16.1 mph 21.9 mph N/A   Overcast
2:15 AM 17.6 °F 4.3 °F 14.0 °F 86% 29.81 in 10.0 mi NW 12.7 mph 16.1 mph N/A   Overcast
2:35 AM 17.6 °F 6.4 °F 15.8 °F 93% 29.83 in 10.0 mi NW 9.2 mph 16.1 mph N/A   Overcast
2:55 AM 17.6 °F 5.7 °F 14.0 °F 86% 29.85 in 10.0 mi NW 10.4 mph - N/A   Overcast
3:15 AM 15.8 °F 2.7 °F 14.0 °F 93% 29.86 in 10.0 mi NW 11.5 mph - N/A   Overcast
3:35 AM 15.8 °F 3.4 °F 14.0 °F 93% 29.84 in 10.0 mi NNW 10.4 mph - N/A   Overcast
3:55 AM 15.8 °F 4.2 °F 12.2 °F 86% 29.84 in 10.0 mi NW 9.2 mph - N/A   Overcast
4:15 AM 15.8 °F 3.4 °F 12.2 °F 86% 29.87 in 10.0 mi NW 10.4 mph - N/A   Overcast
4:35 AM 15.8 °F 2.7 °F 12.2 °F 86% 29.86 in 10.0 mi NNW 11.5 mph - N/A   Overcast
4:55 AM 15.8 °F -0.2 °F 12.2 °F 86% 29.86 in 10.0 mi North 17.3 mph 21.9 mph N/A   Overcast
5:15 AM 15.8 °F 0.9 °F 12.2 °F 86% 29.85 in 10.0 mi NNW 15.0 mph 19.6 mph N/A   Overcast
5:35 AM 15.8 °F 0.9 °F 12.2 °F 86% 29.86 in 10.0 mi North 15.0 mph - N/A   Overcast
6:15 AM 14.0 °F 1.2 °F 12.2 °F 93% 29.87 in 10.0 mi North 10.4 mph 16.1 mph N/A   Overcast
6:35 AM 14.0 °F -2.0 °F 12.2 °F 93% 29.89 in 10.0 mi NNW 16.1 mph - N/A   Overcast
6:55 AM 14.0 °F -0.8 °F 10.4 °F 86% 29.90 in 10.0 mi NNW 13.8 mph - N/A   Overcast
7:15 AM 14.0 °F 0.5 °F 10.4 °F 86% 29.90 in 10.0 mi North 11.5 mph - N/A   Overcast
7:35 AM 12.2 °F -3.1 °F 10.4 °F 92% 29.89 in 10.0 mi North 13.8 mph - N/A   Overcast
7:55 AM 12.2 °F -3.1 °F 10.4 °F 92% 29.91 in 10.0 mi North 13.8 mph - N/A Snow Light Snow
8:15 AM 12.2 °F -2.5 °F 10.4 °F 92% 29.92 in 10.0 mi North 12.7 mph - N/A Snow Light Snow
8:35 AM 12.2 °F -3.7 °F 10.4 °F 92% 29.93 in 7.0 mi North 15.0 mph 19.6 mph N/A Snow Light Snow
8:55 AM 12.2 °F -3.7 °F 10.4 °F 92% 29.94 in 10.0 mi North 15.0 mph - N/A Snow Light Snow
9:15 AM 12.2 °F -4.3 °F 10.4 °F 92% 29.95 in 7.0 mi North 16.1 mph - N/A Snow Light Snow
9:35 AM 12.2 °F -4.3 °F 10.4 °F 92% 29.96 in 7.0 mi North 16.1 mph - N/A Snow Light Snow
9:55 AM 12.2 °F -4.8 °F 8.6 °F 85% 29.97 in 7.0 mi North 17.3 mph - N/A Snow Light Snow
10:15 AM 12.2 °F -4.8 °F 8.6 °F 85% 29.97 in 7.0 mi North 17.3 mph - N/A Snow Light Snow
10:55 AM 12.2 °F -3.1 °F 8.6 °F 85% 30.00 in 7.0 mi North 13.8 mph - N/A Snow Light Snow
11:14 AM 12.2 °F -4.3 °F 8.6 °F 85% 30.00 in 10.0 mi North 16.1 mph 20.7 mph N/A Snow Light Snow
11:35 AM 12.2 °F -6.3 °F 8.6 °F 85% 29.98 in 10.0 mi North 20.7 mph - N/A   Scattered Clouds
11:55 AM 12.2 °F -6.3 °F 8.6 °F 85% 29.97 in 10.0 mi North 20.7 mph - N/A   Clear
12:15 PM 12.2 °F -4.3 °F 8.6 °F 85% 29.97 in 10.0 mi North 16.1 mph 24.2 mph N/A   Clear
12:35 PM 12.2 °F -3.1 °F 8.6 °F 85% 29.98 in 10.0 mi North 13.8 mph 18.4 mph N/A   Clear
1:35 PM 14.0 °F -2.5 °F 6.8 °F 73% 29.98 in 10.0 mi North 17.3 mph - N/A   Clear
2:15 PM 12.2 °F -4.8 °F 6.8 °F 79% 29.99 in 10.0 mi North 17.3 mph - N/A   Clear
2:35 PM 12.2 °F -4.3 °F 6.8 °F 79% 30.00 in 10.0 mi North 16.1 mph - N/A   Clear
2:55 PM 12.2 °F -2.5 °F 5.0 °F 73% 30.01 in 10.0 mi North 12.7 mph - N/A   Clear
3:15 PM 12.2 °F -3.7 °F 6.8 °F 79% 30.02 in 10.0 mi North 15.0 mph - N/A   Clear
3:35 PM 12.2 °F -4.3 °F 5.0 °F 73% 30.03 in 10.0 mi North 16.1 mph - N/A   Clear
3:55 PM 12.2 °F -4.3 °F 5.0 °F 73% 30.04 in 10.0 mi North 16.1 mph - N/A   Clear
4:15 PM 10.4 °F -6.6 °F 3.2 °F 73% 30.05 in 10.0 mi North 16.1 mph - N/A   Clear
4:35 PM 10.4 °F -6.0 °F 3.2 °F 73% 30.05 in 10.0 mi NNW 15.0 mph - N/A   Clear
4:55 PM 8.6 °F -9.5 °F 3.2 °F 79% 30.05 in 10.0 mi NNW 17.3 mph 21.9 mph N/A   Clear
5:15 PM 8.6 °F -9.5 °F 3.2 °F 79% 30.06 in 10.0 mi North 17.3 mph 21.9 mph N/A   Clear
5:35 PM 8.6 °F -8.3 °F 3.2 °F 79% 30.08 in 10.0 mi North 15.0 mph - N/A   Clear
5:55 PM 8.6 °F -8.9 °F 3.2 °F 79% 30.08 in 10.0 mi North 16.1 mph 21.9 mph N/A   Clear
6:15 PM 8.6 °F -8.3 °F 3.2 °F 79% 30.09 in 10.0 mi North 15.0 mph - N/A   Clear
6:35 PM 8.6 °F -7.7 °F 1.4 °F 73% 30.11 in 10.0 mi North 13.8 mph - N/A   Clear
6:55 PM 8.6 °F -7.7 °F 1.4 °F 73% 30.12 in 10.0 mi North 13.8 mph - N/A   Clear
7:15 PM 6.8 °F -9.3 °F 1.4 °F 79% 30.12 in 10.0 mi North 12.7 mph - N/A   Clear
7:35 PM 6.8 °F -8.6 °F 1.4 °F 79% 30.13 in 10.0 mi NNW 11.5 mph - N/A   Clear
7:55 PM 6.8 °F -7.8 °F 1.4 °F 79% 30.14 in 10.0 mi NNW 10.4 mph - N/A   Clear
8:15 PM 6.8 °F -8.6 °F 1.4 °F 79% 30.14 in 10.0 mi NNW 11.5 mph - N/A   Clear
8:35 PM 6.8 °F -10.0 °F 1.4 °F 79% 30.15 in 10.0 mi NNW 13.8 mph - N/A   Clear
8:55 PM 6.8 °F -9.3 °F 1.4 °F 79% 30.16 in 10.0 mi NNW 12.7 mph - N/A   Clear
9:15 PM 6.8 °F -8.6 °F 3.2 °F 85% 30.17 in 10.0 mi NNW 11.5 mph - N/A   Scattered Clouds
9:35 PM 6.8 °F -10.0 °F 1.4 °F 79% 30.18 in 10.0 mi NNW 13.8 mph - N/A   Scattered Clouds
9:55 PM 6.8 °F -7.8 °F 3.2 °F 85% 30.19 in 10.0 mi NNW 10.4 mph - N/A   Clear
10:15 PM 6.8 °F -8.6 °F 1.4 °F 79% 30.19 in 10.0 mi North 11.5 mph - N/A   Clear
10:35 PM 6.8 °F -7.8 °F 3.2 °F 85% 30.20 in 10.0 mi North 10.4 mph - N/A   Scattered Clouds
10:55 PM 6.8 °F -5.9 °F 1.4 °F 79% 30.20 in 10.0 mi North 8.1 mph - N/A   Scattered Clouds
11:15 PM 6.8 °F - 3.2 °F 85% 30.20 in 10.0 mi Calm Calm - N/A   Mostly Cloudy
11:35 PM 6.8 °F -4.8 °F 3.2 °F 85% 30.21 in 10.0 mi North 6.9 mph - N/A   Mostly Cloudy